STARLINK-1903, 46764

Orbit data source: Space-Track

STARLINK-1903, 46764 is a payload satellite owned by SpaceX/Seattle (US) in LEO that was launched on Sat, 24 Oct 2020 UTC via an FALCON 9 launch vehicle from the Air Force Eastern Test Range (AFETR). Payload-class satellites include a variety of spacecraft equipped with specific instruments for various scientific and technological missions. These include communications satellites like Starlink; space stations such as the ISS; scientific satellites like the Hubble; Earth observation satellites from companies like Planet Labs, Umbra, and HawkEye 360; GPS; miniature CubeSats for education and research; and military/defense satellites.

Not visible in the next 10 days
Identifier
46764, 2020-074AB
Orbit
LEO
Country
Flag of USUS
Related business
Manufacturer
SpaceX/Seattle
Mission
Partially operational Commercial Communications
Bus & Motor
STARLINK, Unknown motor
Mass
260 kg wet, ~248 kg dry
Launch date (UTC)
2020-10-24 (5 years ago)
Launch vehicle
FALCON 9
Launch site
Air Force Eastern Test Range (AFETR)
Object type
Payload
Rocket body
Debris
Shape & HBR
Box + 1 Pan, 10.1 m
Radar Cross Section
13.562 m², Large (>1 m²)

Expand to show TLE details & history
Last TLE update: 7 hours ago

TLE from 7 hours ago
0 STARLINK-1903
1 46764U 20074AB  25312.73292903  .00955917  46524-3  16493-2 0  9993
2 46764  53.0055  51.7865 0008621 328.5806  31.4708 16.01769139279743
Epoch: 2025-11-08T17:35Z
TLE epoch observation values (Epoch: 2025-11-08T17:35:25.068Z)
Latitude
0.00002°
Longitude
99.77376°
Altitude
265.543 km
Speed
7.752 km/s
True Right ascension
03h 27m 08s
True Declination
0° 00' 00"
Sunlit
Object was in full shadow at epoch
Visualization orbit readout
Latitude
Unknown
Longitude
Unknown
Altitude
Unknown
Speed
Unknown
Apparent Right ascension
Unknown
Apparent Declination
Unknown
Sunlit
N/A
Visualization observer readout
Local Sidereal Time
20:42:44
Azimuth
Unknown
Elevation
Unknown
Doppler factor
Unknown
Orbital elements
Apogee altitude
275.54 km
Perigee altitude
264.078 km
Semi-major axis
6,647.946 km
Eccentricity
0.00086
Inclination
53.0055°
RAAN
51.7865°
Arg. of periapsis
328.5806°
True anomaly
31.52242°
Mean anomaly
31.4708°
Eccentric anomaly
31.49661°
Mean motion
4.00416 °/min
Orbital period
89.91 mins
BSTAR
0.0016493
Loading maneuver chart data...
Computing Atmospheric mass density...
Loading historical data...
Loading historical data...
Loading historical data...
Loading historical data...
Loading historical data...
Loading historical data...
Loading historical data...

Documentation

Showing up to 5 results
|